Location: Dallas
(32.7833°N, 96.8000°W)
Time: 21:07:57
(UTC-06:00)

Envisat - Pass Details

Date: 14 December 2021
Orbit: 764 x 766 km, 98.2° (Epoch: 23 January)

Event Time Altitude Azimuth Distance (km) Brightness Sun altitude
Rises 06:43:39 0° 348° (NNW) 3,234 5.9 -8.1°
Reaches altitude 10° 06:47:09 10° 323° (NW) 2,303 5.0 -7.4°
Maximum altitude 06:49:31 13° 295° (WNW) 2,072 4.6 -7.0°
Drops below altitude 10° 06:51:52 10° 267° (W) 2,297 4.9 -6.5°
Sets 06:55:22 0° 241° (WSW) 3,218 5.9 -5.8°
